Location: Unspecified
(0.0000°N, 0.0000°E)
Time: 02:23:20
(UTC+02:00)

Tianhe-1 - Visible Passes

Search period start: 23 June 2021 00:00
Search period end: 03 July 2021 00:00
Orbit: 375 x 385 km, 41.5° (Epoch: 22 June)

Date Brightness Start Highest point End Pass type
(mag) Time Alt. Az. Time Alt. Az. Time Alt. Az.
28 Jun 2.0 21:06:05 10° SSW 21:08:28 28° SSE 21:08:28 28° SSE visible
29 Jun 3.0 21:40:49 10° WSW 21:43:35 29° NW 21:44:26 25° NNW visible
30 Jun 0.9 20:38:34 10° SW 20:41:40 82° SE 20:44:46 10° NE visible
01 Jul 4.3 21:14:37 10° WNW 21:16:09 13° NW 21:17:41 10° NNW visible
02 Jul 4.2 07:06:35 10° N 07:08:31 15° NE 07:10:27 10° E visible
